Date String (YYYY-MM-DD hh:mm:ss) UTC,Instrument flags,Ambient pressure (hPa),Sample flow (lpm),Bypass flow (lpm),Sample temperature (°C),Ambient temperature (°C),ASC tube jacket temperature (°C),LED temperature (°C),Box temperature (°C),Sample RH (%),Span deviation,Mass concentration (μg/m³),Mass concentration (μg/m³),Mass concentration (μg/m³)
DateTimeUTC,F1_M11,P_M11,Q1_M11,Q2_M11,T1_M11,T2_M11,T3_M11,T4_M11,T5_M11,U1_M11,ZSPAN_M11,X0_M11,X2_M11,X1_M11
2021-12-23 03:00:00,,0820.2,5.00,0.00,27.7,26.9,00.0,36.7,29.4,05.3,0000.0,0001.18,0000.37,0000.29
2021-12-23 03:01:00,,0820.2,4.99,0.00,27.7,26.9,00.0,36.7,29.4,05.0,0000.0,0001.25,0000.38,0000.28
2021-12-23 03:02:00,,0820.2,5.01,0.00,27.7,26.9,00.0,36.7,29.4,04.6,0000.0,0001.09,0000.36,0000.28
2021-12-23 03:03:00,,0820.2,4.99,0.00,27.7,26.9,00.0,36.7,29.5,04.6,0000.0,0001.10,0000.37,0000.28
2021-12-23 03:04:00,,0820.3,5.00,0.00,27.7,26.9,00.0,36.7,29.5,04.6,0000.0,0001.13,0000.38,0000.28
2021-12-23 03:05:00,,0820.3,5.00,0.00,27.7,26.9,00.0,36.7,29.5,04.6,0000.0,0001.15,0000.39,0000.28
2021-12-23 03:06:00,,0820.1,5.01,0.00,27.7,26.9,00.0,36.7,29.5,04.6,0000.0,0001.20,0000.38,0000.29
2021-12-23 03:07:00,,0820.1,4.99,0.00,27.7,26.9,00.0,36.7,29.5,05.0,0000.0,0001.22,0000.37,0000.28
2021-12-23 03:08:00,,0820.2,5.01,0.00,27.7,26.9,00.0,36.7,29.5,05.1,0000.0,0001.23,0000.38,0000.28
2021-12-23 03:09:00,,0820.3,4.99,0.00,27.8,26.9,00.0,36.7,29.5,04.7,0000.0,0000.84,0000.39,0000.28
2021-12-23 03:10:00,,0820.2,5.00,0.00,27.8,26.9,00.0,36.7,29.5,04.7,0000.0,0001.07,0000.42,0000.29
2021-12-23 03:11:00,,0820.2,5.00,0.00,27.8,27.0,00.0,36.7,29.5,04.6,0000.0,0001.13,0000.45,0000.31
2021-12-23 03:12:00,,0820.2,5.01,0.00,27.8,27.0,00.0,36.7,29.5,04.6,0000.0,0001.25,0000.44,0000.32
2021-12-23 03:13:00,,0820.3,4.98,0.00,27.8,27.0,00.0,36.7,29.5,04.7,0000.0,0001.81,0000.45,0000.32
2021-12-23 03:14:00,,0820.3,5.01,0.00,27.8,27.0,00.0,36.7,29.5,04.6,0000.0,0001.78,0000.43,0000.32
2021-12-23 03:15:00,,0820.4,5.00,0.00,27.8,27.0,00.0,36.7,29.5,04.6,0000.0,0001.81,0000.45,0000.32
2021-12-23 03:16:00,,0820.3,5.00,0.00,27.8,27.0,00.0,36.7,29.5,04.7,0000.0,0001.80,0000.45,0000.32
2021-12-23 03:17:00,,0819.8,5.00,0.00,27.8,27.0,00.0,36.7,29.5,04.7,0000.0,0001.73,0000.45,0000.32
2021-12-23 03:18:00,,0819.8,5.01,0.00,27.8,26.9,00.0,36.7,29.5,04.9,0000.0,0001.71,0000.46,0000.33
2021-12-23 03:19:00,,0820.1,5.00,0.00,27.8,26.9,00.0,36.7,29.5,05.3,0000.0,0001.81,0000.47,0000.33
2021-12-23 03:20:00,,0820.1,5.01,0.00,27.8,26.9,00.0,36.7,29.5,04.8,0000.0,0001.93,0000.48,0000.33
2021-12-23 03:21:00,,0820.2,4.99,0.00,27.7,26.9,00.0,36.7,29.4,04.8,0000.0,0001.57,0000.45,0000.32
2021-12-23 03:22:00,,0820.2,5.01,0.00,27.7,26.8,00.0,36.7,29.4,04.8,0000.0,0001.55,0000.45,0000.31
2021-12-23 03:23:00,,0820.2,5.00,0.00,27.7,26.8,00.0,36.7,29.4,04.9,0000.0,0001.57,0000.45,0000.30
2021-12-23 03:24:00,,0820.2,4.99,0.00,27.7,26.8,00.0,36.7,29.4,05.0,0000.0,0001.09,0000.46,0000.30
2021-12-23 03:25:00,,0820.2,5.02,0.00,27.7,26.8,00.0,36.7,29.4,05.5,0000.0,0001.14,0000.48,0000.30
2021-12-23 03:26:00,,0820.2,4.98,0.00,27.7,26.8,00.0,36.7,29.4,05.5,0000.0,0001.12,0000.46,0000.30
2021-12-23 03:27:00,,0820.3,5.01,0.00,27.7,26.9,00.0,36.7,29.5,05.2,0000.0,0001.15,0000.46,0000.29
2021-12-23 03:28:00,,0820.3,5.00,0.00,27.7,26.9,00.0,36.7,29.5,04.9,0000.0,0001.60,0000.47,0000.29
2021-12-23 03:29:00,,0820.3,4.99,0.00,27.7,26.9,00.0,36.7,29.5,04.8,0000.0,0001.74,0000.46,0000.28
2021-12-23 03:30:00,,0820.2,5.01,0.00,27.7,26.9,00.0,36.7,29.5,04.8,0000.0,0001.75,0000.47,0000.29
2021-12-23 03:31:00,,0820.2,4.98,0.00,27.7,26.9,00.0,36.7,29.5,04.9,0000.0,0001.67,0000.44,0000.29
2021-12-23 03:32:00,,0819.9,5.02,0.00,27.7,26.9,00.0,36.7,29.5,04.9,0000.0,0002.13,0000.43,0000.29
2021-12-23 03:33:00,,0819.9,5.00,0.00,27.7,26.9,00.0,36.7,29.5,05.1,0000.0,0002.28,0000.43,0000.29
2021-12-23 03:34:00,,0820.0,5.02,0.00,27.8,26.9,00.0,36.7,29.5,05.2,0000.0,0002.13,0000.43,0000.29
2021-12-23 03:35:00,,0820.2,4.98,0.00,27.8,26.9,00.0,36.7,29.5,05.3,0000.0,0002.11,0000.43,0000.29
2021-12-23 03:36:00,,0820.2,5.01,0.00,27.8,26.9,00.0,36.7,29.5,05.1,0000.0,0002.07,0000.41,0000.30
2021-12-23 03:37:00,,0820.0,4.99,0.00,27.8,26.9,00.0,36.7,29.5,05.0,0000.0,0002.03,0000.39,0000.30
2021-12-23 03:38:00,,0820.0,5.01,0.00,27.8,26.9,00.0,36.7,29.5,05.0,0000.0,0002.00,0000.39,0000.30
2021-12-23 03:39:00,,0820.0,4.99,0.00,27.8,26.9,00.0,36.7,29.5,04.9,0000.0,0001.59,0000.39,0000.31
2021-12-23 03:40:00,,0820.0,5.02,0.00,27.8,26.9,00.0,36.7,29.5,04.9,0000.0,0001.39,0000.39,0000.31
2021-12-23 03:41:00,,0820.0,4.99,0.00,27.8,27.0,00.0,36.7,29.5,04.9,0000.0,0001.30,0000.36,0000.31
2021-12-23 03:42:00,,0820.0,5.01,0.00,27.8,27.0,00.0,36.7,29.5,05.0,0000.0,0001.19,0000.36,0000.31
2021-12-23 03:43:00,,0819.9,4.98,0.00,27.8,27.0,00.0,36.7,29.5,05.0,0000.0,0000.71,0000.37,0000.31
2021-12-23 03:44:00,,0820.0,5.02,0.00,27.8,27.0,00.0,36.7,29.5,05.0,0000.0,0000.54,0000.35,0000.30
2021-12-23 03:45:00,,0820.2,5.00,0.00,27.8,27.0,00.0,36.7,29.5,04.9,0000.0,0000.52,0000.34,0000.30
2021-12-23 03:46:00,,0820.3,5.00,0.00,27.8,26.9,00.0,36.7,29.5,05.1,0000.0,0000.48,0000.34,0000.30
2021-12-23 03:47:00,,0820.2,4.99,0.00,27.8,26.9,00.0,36.7,29.5,05.1,0000.0,0000.47,0000.36,0000.30
2021-12-23 03:48:00,,0820.1,5.00,0.00,27.8,26.9,00.0,36.7,29.5,05.1,0000.0,0000.49,0000.37,0000.30
2021-12-23 03:49:00,,0819.9,5.01,0.00,27.8,26.9,00.0,36.7,29.5,05.1,0000.0,0000.50,0000.37,0000.30
2021-12-23 03:50:00,,0819.9,4.99,0.00,27.8,26.9,00.0,36.7,29.5,05.1,0000.0,0000.52,0000.38,0000.29
2021-12-23 03:51:00,,0820.0,5.01,0.00,27.8,26.9,00.0,36.7,29.5,05.1,0000.0,0000.54,0000.39,0000.29
2021-12-23 03:52:00,,0820.0,4.98,0.00,27.8,26.9,00.0,36.7,29.5,05.0,0000.0,0000.56,0000.40,0000.28
2021-12-23 03:53:00,,0820.1,5.01,0.00,27.8,26.9,00.0,36.7,29.4,05.0,0000.0,0000.57,0000.40,0000.28
2021-12-23 03:54:00,,0820.2,4.99,0.00,27.7,26.9,00.0,36.7,29.4,05.0,0000.0,0000.58,0000.40,0000.28
2021-12-23 03:55:00,,0820.3,5.00,0.00,27.7,26.9,00.0,36.7,29.4,05.0,0000.0,0000.58,0000.41,0000.29
2021-12-23 03:56:00,,0820.3,5.01,0.00,27.7,26.9,00.0,36.7,29.4,05.1,0000.0,0000.61,0000.42,0000.29
2021-12-23 03:57:00,,0820.2,4.99,0.00,27.7,26.9,00.0,36.7,29.4,05.1,0000.0,0000.59,0000.42,0000.29
2021-12-23 03:58:00,,0820.1,5.00,0.00,27.7,26.9,00.0,36.7,29.4,05.5,0000.0,0000.56,0000.40,0000.29
2021-12-23 03:59:00,,0820.1,5.01,0.00,27.7,26.8,00.0,36.7,29.4,05.7,0000.0,0000.54,0000.38,0000.28
